User: anonymous   Login
Location: Brno
(49.2000°N, 16.6330°E)
Time: 14:35:21
(UTC+02:00)
Language:

Cosmos 1459 Rocket - Orbit

View from above orbital plane
View from above orbital plane
View from above satellite
View from above satellite

Ground track
Ground track

The orbit data is extracted from the following two-line orbital elements,

1 14059U 83042B   17144.90467617 +.00000048 +00000-0 +32657-4 0  9992
2 14059 082.9729 079.2173 0042097 334.1328 025.7725 13.78589224712280
Epoch (UTC): 24 May 2017 21:42:44
Eccentricity: 0.0042097
inclination: 82.9729°
perigee height: 938 km
apogee height: 1000 km
right ascension of ascending node: 79.2173°
argument of perigee: 334.1328°
revolutions per day: 13.78589224
mean anomaly at epoch: 25.7725°
orbit number at epoch: 71228

The dashed part of the orbit path shows where the satellite is in the earth's shadow,  

DLR